Tracking 22454 objects as of 5-Mar-2021
HD Live streaming from Space Station
objects crossing your sky now

SL-6 R/B(2)

Track SL-6 R/B(2) now!


NORAD ID: 13897
Int'l Code: 1983-019D
Perigee: 1,156.1 km
Apogee: 39,931.8 km
Inclination: 62.9 °
Period: 732.4 minutes
Semi major axis: 26914 km
RCS: 8.0304 m2 (large)
Launch date: March 16, 1983
Source: Commonwealth of Independent States (former USSR) (CIS)
Launch site: PLESETSK MISSILE AND SPACE COMPLEX (PKMTR)

Note: This is a ROCKET BODY
aabbcc
Your satellite tracking list
Your tracking list is empty




NASA's NSSDC Master Catalog

Two Line Element Set (TLE):
1 13897U 83019D   21063.47019295 -.00000796  00000-0  00000-0 0  9991
2 13897  62.8911 128.4820 7203364 261.7235  18.4136  1.96612735272591
Source of the keplerian elements: AFSPC